Location: Dumbr?vi?a
(45.8833°N, 22.7000°E)
Time: 07:02:57
(UTC+00:00)

Cosmos 1666 - Pass Details

Date: 03 March 2021
Orbit: 497 x 518 km, 82.5° (Epoch: 10 April)

Event Time Altitude Azimuth Distance (km) Brightness Sun altitude
Rises 18:28:40 0° 202° (SSW) 2,573 6.3 -23.2°
Reaches altitude 10° 18:30:50 10° 209° (SSW) 1,696 5.4 -23.6°
Maximum altitude 18:34:23 44° 283° (WNW) 704 3.7 -24.2°
Drops below altitude 10° 18:38:00 10° 356° (N) 1,715 5.6 -24.8°
Sets 18:40:12 0° 3° (N) 2,607 6.4 -25.2°
